Location: Cisewo
(53.3833°N, 14.9000°E)
Time: 11:59:50
(UTC+00:00)

Terra - Pass Details

Date: 18 April 2021
Orbit: 701 x 703 km, 98.2° (Epoch: 14 May)

Event Time Altitude Azimuth Distance (km) Brightness Sun altitude
Exits shadow 19:50:06 20° 116° (ESE) 1,583 3.1 -14.0°
Maximum altitude 19:52:41 36° 64° (ENE) 1,119 2.7 -14.3°
Drops below altitude 10° 19:57:02 10° 358° (N) 2,184 5.0 -14.7°
Sets 19:59:26 0° 350° (N) 3,107 6.1 -15.0°
